CARTOSAT-2C (41599 NORAD) Tracking and Keplerian Element Data

This shows tracking and keplerian element data for the satellite.

Feedback or suggestion? Click here.




ElementValue
Catalog41599
NameCARTOSAT-2C
Epoch Orbit11471
Epoch Day198.7898809
Epoch Year2018
RAAN259.308
Inclination97.408
Eccentricity0.0014876
Argument of Perigee130.3656
Mean Anonmoly3.8339
Mean Motion15.19247879
Decay Rate3.66E-06
L11 41599U 16040A 18198.78988090 .00000366 00000-0 20527-4 0 9990
L22 41599 97.4080 259.3080 0014876 130.3656 3.8339 15.19247879114718

Live tracking and technical data element details for CARTOSAT-2C (NORAD 41599). CARTOSAT-2C can be tracked NOW for your location showing map with azimuth and elevation plus other details from your city location.

Track the satellite on the map from your city or location and see movement details for azimuth, elevation, latitude, longitude, range, height, and movement on the map or in text.







IsCatalogInMostPopularTable: catalog: 41599, numindb: 70
Update: records affected: 1



GetName: 41599 CARTOSAT-2C

Hit Count: updated at: Thu, 19 Jul 2018 03:47:22 GMT